Location: Brantley
(31.5822°N, 86.2569°W)
Time: 18:30:05
(UTC+00:00)

Courier 1B Rocket - Pass Details

Date: 20 February 2026
Orbit: 920 x 1201 km, 28.2° (Epoch: 10 March)

Event Time Altitude Azimuth Distance (km) Brightness Sun altitude
Rises 23:55:46 0° 242° (WSW) 3,555 9.7 -5.1°
Reaches altitude 10° 23:58:28 10° 237° (WSW) 2,603 8.5 -5.7°
Maximum altitude 00:04:23 47° 165° (SSE) 1,202 5.5 -6.9°
Drops below altitude 10° 00:10:24 10° 93° (E) 2,646 6.6 -8.2°
Enters shadow 00:10:36 - 92° (E) 2,717 6.7 -8.2°
Sets 00:13:09 0° 88° (E) 3,620 - -8.8°
